Regional Weather Roundup
Issued by NWS Goodland, KS

Home | Current Version | Previous Version | Graphics & Text | Print | Product List | Glossary On
Versions: 1 2 3 4 5 6 7 8 9 10 11 12 13 14 15 16 17 18 19 20 21 22 23 24 25 26 27 28 29 30 31 32 33 34 35 36 37 38 39 40 41 42 43 44 45 46 47 48 49 50
000
ASUS43 KGLD 230159
RWRGLD

GOODLAND FORECAST AREA HOURLY WEATHER ROUNDUP
NATIONAL WEATHER SERVICE GOODLAND KS
800 PM MDT TUE APR 22 2014

...OFFICIAL OBSERVATIONS...

CITY           SKY/WX    TMP DP  RH WIND       PRES   REMARKS
GOODLAND KS    MOCLDY    69  43  38 S23G29    29.75R
HILL CITY KS   MOCLDY    67  36  31 SE15      29.83R
IMPERIAL NEB   PTCLDY    68  41  37 SE20G26   29.70S
MCCOOK NEB     MOCLDY    68  37  32 SE22G32   29.75S
AKRON CO       CLOUDY    69  36  29 S10G24    29.70S
BURLINGTON CO  MOCLDY    67  41  38 S18       29.75R
LIMON CO       MOCLDY    60  37  42 SE9       29.76F
$$

...UNOFFICIAL OBSERVATIONS...

CITY           SKY/WX    TMP DP  RH WIND       PRES   REMARKS
COLBY KS       PTCLDY    70  50  49 S29G37    29.78S
LENORA KS        N/A     66  32  28 SE20        N/A
LEOTI KS         N/A     64  32  30 E14         N/A
NORTON KS      CLEAR     64  36  34 SE13      29.80S
SHARON SPRINGS   N/A     63  52  67 S9          N/A
WAKEENEY KS      N/A     67  31  25 MISG        N/A
KIT CARSON CO    N/A     66  43  44 MISG        N/A
$$



USA.gov is the U.S. government's official web portal to all federal, state and local government web resources and services.